Location: Poughquag
(41.6090°N, 73.6820°W)
Time: 13:13:28
(UTC-04:00)

DIWATA 2B (PO-101) - Pass Details

Date: 06 June 2024
Orbit: 574 x 588 km, 98.1° (Epoch: 14 June)

Event Time Altitude Azimuth Distance (km) Brightness Sun altitude
Rises 03:18:53 0° 126° (SE) 2,780 ? -17.4°
Reaches altitude 10° 03:21:36 10° 107° (ESE) 1,885 ? -17.1°
Maximum altitude 03:24:17 17° 65° (ENE) 1,470 ? -16.8°
Drops below altitude 10° 03:27:00 10° 24° (NNE) 1,891 ? -16.5°
Sets 03:29:43 0° 5° (N) 2,794 ? -16.2°
